Regional Weather Roundup
Issued by NWS

Home | Current Version | Previous Version | Text Only | Print | Product List | Glossary On
Versions: 1 2 3 4 5 6 7 8 9 10 11 12 13 14 15 16 17 18 19 20 21 22 23 24 25 26 27 28 29 30 31 32 33 34 35 36 37 38 39 40 41 42 43 44 45 46 47 48 49 50
000
ASUS43 KLMK 250510
RWRKY
KENTUCKY REGIONAL WEATHER ROUNDUP
NATIONAL WEATHER SERVICE LOUISVILLE KY
100 AM EDT WED APR 25 2018

NOTE "FAIR" INDICATES FEW OR NO CLOUDS BELOW 12,000 FEET
WITH NO SIGNIFICANT WEATHER AND/OR OBSTRUCTIONS TO VISIBILITY.

KYZ001>023-026-027-061>063-070>075-250600-
WESTERN AND SOUTH CENTRAL KENTUCKY

CITY           SKY/WX    TMP DP  RH WIND       PRES   REMARKS
PADUCAH        FAIR      54  52  93 W5        29.98F
HENDERSON      FAIR      55  54  96 CALM      29.98F
OWENSBORO      CLOUDY    56  54  93 NW5       29.97F
HOPKINSVILLE   NOT AVBL
BOWLING GREEN  CLOUDY    56  55  97 NW5       29.96S
GLASGOW        CLOUDY    55  53  93 CALM      29.94S
$$

KYZ024-025-028>034-038-045-046-053-250600-
NORTH CENTRAL KENTUCKY

CITY           SKY/WX    TMP DP  RH WIND       PRES   REMARKS
LOUISVILLE/SDF DRIZZLE   56  54  93 NW6       29.93S
LOUISVILLE/LOU CLOUDY    56  55  97 NW5       29.93S
FORT KNOX      NOT AVBL
$$

KYZ035>037-039>044-047>052-055>060-089>105-250600-
NORTHEAST KENTUCKY

CITY           SKY/WX    TMP DP  RH WIND       PRES   REMARKS
LEXINGTON      CLOUDY    55  52  89 NW7       29.91S
COVINGTON      CLOUDY    53  52  96 N8        29.90S
FRANKFORT      CLOUDY    55  52  89 N5        29.90S
$$

KYZ054-064>069-076>088-106>120-250600-
SOUTHEAST KENTUCKY

CITY           SKY/WX    TMP DP  RH WIND       PRES   REMARKS
JACKSON        CLOUDY    55  52  89 NW6       29.88S
LONDON         CLOUDY    55  54  96 W5        29.90S
SOMERSET       CLOUDY    54  54 100 CALM      29.93S
MIDDLESBORO    CLOUDY    56  55  95 CALM      29.89R
MONTICELLO     CLOUDY    54  53  97 NW8       29.94S
$$




USA.gov is the U.S. government's official web portal to all federal, state and local government web resources and services.